GAP2197 RPLI-RPLL

Flight info

Callsign GAP2197
Flight time N/A
Altitude 33000
Route MELAN2P MELAN M646 SANRO W4 NABAL NABAL5R
Aircraft A320/M-SDE3FGHIRWY/LB1

Departure

Time 2026-05-04 14:08
Airport Laoag International Airport (RPLI)

Arrival

Time N/A
Airport Ninoy Aquino International Airport (RPLL)
Time Latitude Longitude Altitude Speed Heading
2026-05-04 13:55 18.18158 120.53323 33 ft 0 kts 62°
2026-05-04 14:01 18.18159 120.53324 33 ft 0 kts 62°
2026-05-04 14:01 18.18159 120.53325 33 ft 0 kts 62°
2026-05-04 14:01 18.18162 120.53328 33 ft 1 kts 43°
2026-05-04 14:02 18.18178 120.53328 33 ft 3 kts 352°
2026-05-04 14:02 18.18214 120.53321 33 ft 6 kts 351°
2026-05-04 14:02 18.18269 120.53310 33 ft 9 kts 345°
2026-05-04 14:02 18.18319 120.53261 33 ft 11 kts 278°
2026-05-04 14:03 18.18285 120.53181 33 ft 13 kts 208°
2026-05-04 14:03 18.18185 120.53166 33 ft 16 kts 185°
2026-05-04 14:03 18.18057 120.53153 33 ft 20 kts 186°
2026-05-04 14:03 18.17903 120.53137 33 ft 23 kts 185°
2026-05-04 14:04 18.17557 120.53103 33 ft 28 kts 185°
2026-05-04 14:04 18.17352 120.53086 33 ft 30 kts 184°
2026-05-04 14:04 18.17133 120.53062 33 ft 32 kts 186°
2026-05-04 14:05 18.16826 120.53032 33 ft 27 kts 185°
2026-05-04 14:06 18.16517 120.53001 33 ft 0 kts
2026-05-04 14:07 18.16523 120.53001 33 ft 2 kts
2026-05-04 14:07 18.16708 120.53020 33 ft 62 kts
2026-05-04 14:07 18.17381 120.53088 33 ft 129 kts
2026-05-04 14:08 18.18447 120.53198 136 ft 172 kts
2026-05-04 14:08 18.19623 120.53310 827 ft 169 kts
2026-05-04 14:08 18.20786 120.53397 1545 ft 169 kts
2026-05-04 14:08 18.21958 120.53368 2015 ft 179 kts 341°
2026-05-04 14:09 18.23425 120.51278 2707 ft 216 kts 262°
2026-05-04 14:09 18.22795 120.49794 3116 ft 232 kts 231°
2026-05-04 14:10 18.20552 120.47032 3983 ft 267 kts 232°
2026-05-04 14:10 18.19430 120.45411 4523 ft 280 kts 236°
2026-05-04 14:10 18.18346 120.43693 5297 ft 284 kts 238°
2026-05-04 14:10 18.17630 120.42513 5838 ft 286 kts 238°
2026-05-04 14:11 18.13505 120.39322 7946 ft 296 kts 185°
2026-05-04 14:12 18.07967 120.39009 10053 ft 308 kts 183°
2026-05-04 14:12 18.05798 120.38891 10689 ft 319 kts 184°
2026-05-04 14:12 18.01119 120.38599 11442 ft 355 kts 184°
2026-05-04 14:13 17.98626 120.38435 11766 ft 372 kts 184°
2026-05-04 14:13 17.96044 120.38263 12304 ft 381 kts 185°
2026-05-04 14:13 17.93481 120.38090 12988 ft 384 kts 184°
2026-05-04 14:13 17.90821 120.37912 13666 ft 388 kts 184°
2026-05-04 14:14 17.88095 120.37730 14325 ft 392 kts 184°
2026-05-04 14:14 17.82605 120.37428 15599 ft 400 kts 181°
2026-05-04 14:14 17.79904 120.37474 16204 ft 403 kts 177°
2026-05-04 14:15 17.74354 120.37921 17409 ft 410 kts 174°
2026-05-04 14:15 17.68619 120.38432 18576 ft 416 kts 174°
2026-05-04 14:16 17.62893 120.38937 19666 ft 421 kts 174°
2026-05-04 14:16 17.59923 120.39197 20210 ft 424 kts 174°
2026-05-04 14:17 17.53977 120.39716 21260 ft 429 kts 173°
2026-05-04 14:17 17.51017 120.39973 21766 ft 432 kts 173°
2026-05-04 14:17 17.45006 120.40498 22740 ft 437 kts 173°
2026-05-04 14:18 17.41962 120.40763 23212 ft 439 kts 173°
2026-05-04 14:18 17.35855 120.41295 24121 ft 443 kts 173°
2026-05-04 14:19 17.29657 120.41803 24989 ft 448 kts 175°
2026-05-04 14:19 17.26542 120.41870 25404 ft 451 kts 178°
2026-05-04 14:19 17.23400 120.41732 25809 ft 454 kts 182°
2026-05-04 14:19 17.20263 120.41409 26203 ft 456 kts 184°
2026-05-04 14:20 17.17112 120.41036 26591 ft 458 kts 184°
2026-05-04 14:20 17.13981 120.40659 26956 ft 460 kts 184°
2026-05-04 14:20 17.10775 120.40276 27319 ft 461 kts 184°
2026-05-04 14:21 17.04364 120.39517 27990 ft 465 kts 184°
2026-05-04 14:21 17.01160 120.39141 28298 ft 467 kts 184°
2026-05-04 14:21 16.97935 120.38763 28594 ft 469 kts 184°
2026-05-04 14:21 16.94693 120.38383 28880 ft 470 kts 184°
2026-05-04 14:22 16.91441 120.38000 29185 ft 471 kts 184°
2026-05-04 14:22 16.88184 120.37618 29586 ft 470 kts 184°
2026-05-04 14:22 16.84983 120.37243 29985 ft 468 kts 184°
2026-05-04 14:22 16.81770 120.36867 30387 ft 466 kts 184°
2026-05-04 14:23 16.75360 120.36204 31194 ft 460 kts 180°
2026-05-04 14:23 16.72166 120.36148 31599 ft 456 kts 176°
2026-05-04 14:23 16.69288 120.36306 31967 ft 453 kts 172°
2026-05-04 14:24 16.66266 120.36656 32359 ft 449 kts 171°
2026-05-04 14:24 16.63263 120.37054 32747 ft 447 kts 170°
2026-05-04 14:24 16.60150 120.37476 32934 ft 449 kts 170°
2026-05-04 14:25 16.53982 120.38307 32942 ft 449 kts 170°
2026-05-04 14:25 16.46062 120.39361 32949 ft 449 kts 170°
2026-05-04 14:26 16.39343 120.40250 32952 ft 449 kts 170°
2026-05-04 14:26 16.33160 120.41067 32952 ft 449 kts 170°
2026-05-04 14:27 16.26953 120.41888 32881 ft 450 kts 170°
2026-05-04 14:27 16.24895 120.42159 32712 ft 450 kts 170°
2026-05-04 14:27 16.23841 120.42298 32627 ft 450 kts 170°
2026-05-04 14:28 16.14505 120.43530 31265 ft 457 kts 170°
2026-05-04 14:28 16.11323 120.43951 30063 ft 466 kts 170°
2026-05-04 14:28 16.08103 120.44378 28770 ft 476 kts 170°
2026-05-04 14:29 16.03715 120.44958 27085 ft 485 kts 171°
2026-05-04 14:30 15.90633 120.46683 22496 ft 490 kts 172°
2026-05-04 14:30 15.89255 120.46863 22192 ft 487 kts 172°
2026-05-04 14:30 15.82884 120.47700 20602 ft 477 kts 172°
2026-05-04 14:31 15.81835 120.47838 20333 ft 476 kts 172°
2026-05-04 14:31 15.76315 120.48565 18944 ft 468 kts 172°
2026-05-04 14:32 15.69948 120.49402 17379 ft 459 kts 173°
2026-05-04 14:32 15.66822 120.49812 16635 ft 454 kts 173°
2026-05-04 14:32 15.63711 120.50215 16135 ft 443 kts 173°
2026-05-04 14:32 15.60732 120.50601 15958 ft 425 kts 173°
2026-05-04 14:33 15.57878 120.50971 15953 ft 405 kts 173°
2026-05-04 14:33 15.55244 120.51313 15952 ft 387 kts 173°
2026-05-04 14:33 15.52590 120.51657 15950 ft 369 kts 173°
2026-05-04 14:33 15.50096 120.51982 15949 ft 352 kts 172°
2026-05-04 14:34 15.47729 120.52471 15949 ft 340 kts 165°
2026-05-04 14:34 15.45524 120.53268 15954 ft 339 kts 156°
2026-05-04 14:34 15.43701 120.54186 15957 ft 339 kts 152°
2026-05-04 14:34 15.41611 120.55345 15957 ft 339 kts 151°
2026-05-04 14:35 15.39530 120.56520 15810 ft 339 kts 151°
2026-05-04 14:35 15.37511 120.57656 15565 ft 337 kts 151°
2026-05-04 14:35 15.35750 120.58640 15351 ft 336 kts 151°
2026-05-04 14:35 15.33486 120.59900 15075 ft 335 kts 152°
2026-05-04 14:36 15.31428 120.61040 14824 ft 334 kts 152°
2026-05-04 14:36 15.29388 120.62167 14574 ft 332 kts 152°
2026-05-04 14:36 15.27362 120.63286 14308 ft 332 kts 152°
2026-05-04 14:36 15.25364 120.64389 13915 ft 331 kts 152°
2026-05-04 14:37 15.23322 120.65515 13512 ft 330 kts 152°
2026-05-04 14:37 15.21424 120.66562 13135 ft 328 kts 152°
2026-05-04 14:37 15.19412 120.67671 12733 ft 327 kts 153°
2026-05-04 14:37 15.17395 120.68783 12329 ft 325 kts 153°
2026-05-04 14:38 15.15427 120.69868 11933 ft 323 kts 153°
2026-05-04 14:38 15.13429 120.70968 11529 ft 322 kts 153°
2026-05-04 14:38 15.11487 120.72038 11133 ft 320 kts 153°
2026-05-04 14:38 15.09528 120.73118 10807 ft 315 kts 153°
2026-05-04 14:39 15.07606 120.74176 10506 ft 309 kts 154°
2026-05-04 14:39 15.05726 120.75211 10142 ft 307 kts 154°
2026-05-04 14:39 15.03847 120.76244 9776 ft 304 kts 154°
2026-05-04 14:40 15.00756 120.77943 9188 ft 299 kts 154°
2026-05-04 14:40 14.98315 120.79285 8726 ft 295 kts 154°
2026-05-04 14:40 14.96528 120.80266 8382 ft 292 kts 155°
2026-05-04 14:40 14.94636 120.80930 7993 ft 286 kts 176°
2026-05-04 14:41 14.92704 120.80724 7638 ft 279 kts 199°
2026-05-04 14:41 14.90881 120.80039 7291 ft 276 kts 202°
2026-05-04 14:41 14.87350 120.78610 7007 ft 262 kts 202°
2026-05-04 14:42 14.83824 120.77211 7009 ft 275 kts 201°
2026-05-04 14:42 14.82039 120.76511 7007 ft 275 kts 201°
2026-05-04 14:42 14.80248 120.75811 7006 ft 275 kts 201°
2026-05-04 14:43 14.78433 120.75102 7005 ft 275 kts 201°
2026-05-04 14:43 14.76725 120.74436 7003 ft 275 kts 201°
2026-05-04 14:43 14.74932 120.73737 6998 ft 269 kts 201°
2026-05-04 14:43 14.73233 120.73077 6991 ft 254 kts 201°
2026-05-04 14:44 14.71596 120.72441 6974 ft 252 kts 201°
2026-05-04 14:44 14.69950 120.71800 6846 ft 250 kts 201°
2026-05-04 14:44 14.68340 120.71172 6723 ft 250 kts 201°
2026-05-04 14:44 14.66658 120.70517 6579 ft 262 kts 201°
2026-05-04 14:45 14.64946 120.69850 6456 ft 266 kts 201°
2026-05-04 14:45 14.63209 120.69183 6331 ft 266 kts 198°
2026-05-04 14:45 14.61405 120.68950 6181 ft 264 kts 170°
2026-05-04 14:45 14.59678 120.69603 6072 ft 263 kts 150°
2026-05-04 14:46 14.58662 120.70200 6001 ft 262 kts 148°
2026-05-04 14:46 14.57107 120.71162 5863 ft 258 kts 151°
2026-05-04 14:46 14.55596 120.72102 5661 ft 250 kts 151°
2026-05-04 14:46 14.54129 120.72976 5510 ft 233 kts 153°
2026-05-04 14:47 14.52628 120.73469 5357 ft 225 kts 181°
2026-05-04 14:47 14.51142 120.73102 5233 ft 223 kts 211°
2026-05-04 14:47 14.50029 120.72006 5112 ft 224 kts 236°
2026-05-04 14:47 14.49231 120.70610 4996 ft 229 kts 241°
2026-05-04 14:48 14.48434 120.69146 4998 ft 237 kts 242°
2026-05-04 14:48 14.47630 120.67659 4993 ft 238 kts 241°
2026-05-04 14:48 14.46807 120.66151 4991 ft 239 kts 241°
2026-05-04 14:48 14.45974 120.64685 4991 ft 238 kts 236°
2026-05-04 14:49 14.44724 120.63565 4972 ft 239 kts 202°
2026-05-04 14:49 14.43124 120.63309 4984 ft 237 kts 169°
2026-05-04 14:49 14.41601 120.63899 5008 ft 234 kts 149°
2026-05-04 14:49 14.40200 120.64755 5006 ft 235 kts 147°
2026-05-04 14:50 14.38804 120.65627 4999 ft 234 kts 147°
2026-05-04 14:50 14.37402 120.66483 5001 ft 233 kts 148°
2026-05-04 14:50 14.35989 120.67327 4997 ft 233 kts 148°
2026-05-04 14:50 14.34648 120.68224 4982 ft 231 kts 132°
2026-05-04 14:51 14.33863 120.69616 4986 ft 225 kts 99°
2026-05-04 14:51 14.33922 120.71239 5018 ft 233 kts 76°
2026-05-04 14:51 14.34557 120.72803 4925 ft 236 kts 63°
2026-05-04 14:51 14.35391 120.74264 4805 ft 237 kts 60°
2026-05-04 14:52 14.36249 120.75700 4678 ft 236 kts 60°
2026-05-04 14:52 14.37090 120.77132 4556 ft 235 kts 61°
2026-05-04 14:52 14.37927 120.78598 4433 ft 232 kts 62°
2026-05-04 14:52 14.38715 120.80005 4285 ft 224 kts 62°
2026-05-04 14:53 14.39463 120.81354 4228 ft 209 kts 62°
2026-05-04 14:53 14.40167 120.82632 3967 ft 202 kts 62°
2026-05-04 14:53 14.40854 120.83881 3668 ft 198 kts 63°
2026-05-04 14:53 14.41529 120.85111 3373 ft 193 kts 63°
2026-05-04 14:54 14.42168 120.86269 3100 ft 178 kts 63°
2026-05-04 14:54 14.42765 120.87347 2835 ft 165 kts 63°
2026-05-04 14:54 14.43308 120.88329 2602 ft 152 kts 63°
2026-05-04 14:54 14.43792 120.89202 2381 ft 142 kts 64°
2026-05-04 14:55 14.44279 120.90085 2216 ft 140 kts 64°
2026-05-04 14:55 14.44767 120.90968 2045 ft 141 kts 64°
2026-05-04 14:55 14.45252 120.91843 1888 ft 138 kts 63°
2026-05-04 14:55 14.45726 120.92698 1695 ft 137 kts 64°
2026-05-04 14:56 14.46199 120.93550 1529 ft 136 kts 63°